Time,TemperatureF,DewpointF,PressureIn,WindDirection,WindDirectionDegrees,WindSpeedMPH,WindSpeedGustMPH,Humidity,HourlyPrecipIn,Conditions,Clouds,dailyrainin,SoftwareType,DateUTC
2016-12-03 00:00:00,50.7,42.7,30.02,ENE,60,0.0,11.0,74,0.00,,---,0.00,VWS V13.01,2016-12-03 06:00:00,
2016-12-03 00:05:00,50.7,42.7,30.02,ENE,57,0.0,3.0,74,0.00,,---,0.00,VWS V13.01,2016-12-03 06:05:00,
2016-12-03 00:10:00,50.6,43.0,30.02,NE,45,1.0,6.0,75,0.00,,---,0.00,VWS V13.01,2016-12-03 06:10:00,
2016-12-03 00:15:00,50.5,42.9,30.01,ENE,74,1.0,6.0,75,0.00,,---,0.00,VWS V13.01,2016-12-03 06:15:00,
2016-12-03 00:20:00,50.4,42.8,30.00,ENE,68,3.0,7.0,75,0.00,,---,0.00,VWS V13.01,2016-12-03 06:20:00,
2016-12-03 00:25:00,50.4,42.4,30.00,ENE,71,0.0,7.0,74,0.00,,---,0.00,VWS V13.01,2016-12-03 06:25:00,
2016-12-03 00:30:00,50.3,42.3,30.01,NE,53,3.0,7.0,74,0.00,,---,0.00,VWS V13.01,2016-12-03 06:30:00,
2016-12-03 00:35:00,50.2,42.2,30.00,ENE,73,0.0,4.0,74,0.00,,---,0.00,VWS V13.01,2016-12-03 06:35:00,
2016-12-03 00:40:00,50.2,42.2,30.00,ENE,73,0.0,6.0,74,0.00,,---,0.00,VWS V13.01,2016-12-03 06:40:00,
2016-12-03 00:45:00,50.1,42.2,30.00,East,80,0.0,6.0,74,0.00,,---,0.00,VWS V13.01,2016-12-03 06:45:00,
2016-12-03 00:50:00,50.0,41.7,29.99,ENE,69,3.0,7.0,73,0.00,,---,0.00,VWS V13.01,2016-12-03 06:50:00,
2016-12-03 00:55:00,50.0,42.7,29.99,ENE,62,7.0,7.0,76,0.00,,---,0.00,VWS V13.01,2016-12-03 06:55:00,
2016-12-03 01:00:00,50.0,41.7,29.99,ENE,67,3.0,9.0,73,0.00,,---,0.00,VWS V13.01,2016-12-03 07:00:00,
2016-12-03 01:05:00,50.0,41.7,29.98,ENE,76,2.0,5.0,73,0.00,,---,0.00,VWS V13.01,2016-12-03 07:05:00,
2016-12-03 01:10:00,49.9,41.6,29.98,ENE,61,0.0,6.0,73,0.00,,---,0.00,VWS V13.01,2016-12-03 07:10:00,
2016-12-03 01:15:00,49.9,41.6,29.98,ENE,68,3.0,6.0,73,0.00,,---,0.00,VWS V13.01,2016-12-03 07:15:00,
2016-12-03 01:20:00,49.9,41.2,29.98,NE,46,0.0,6.0,72,0.00,,---,0.00,VWS V13.01,2016-12-03 07:20:00,
2016-12-03 01:25:00,49.9,41.2,29.98,NE,45,2.0,6.0,72,0.00,,---,0.00,VWS V13.01,2016-12-03 07:25:00,
2016-12-03 01:35:00,49.9,40.9,29.97,ENE,65,3.0,6.0,71,0.00,,---,0.00,VWS V13.01,2016-12-03 07:35:00,
2016-12-03 01:40:00,49.9,40.9,29.97,ENE,71,0.0,6.0,71,0.00,,---,0.00,VWS V13.01,2016-12-03 07:40:00,
2016-12-03 01:45:00,49.9,40.9,29.97,ENE,60,3.0,10.0,71,0.00,,---,0.00,VWS V13.01,2016-12-03 07:45:00,
2016-12-03 01:50:00,49.9,40.5,29.97,East,86,5.0,10.0,70,0.00,,---,0.00,VWS V13.01,2016-12-03 07:50:00,
2016-12-03 01:55:00,49.9,40.5,29.97,ENE,65,0.0,10.0,70,0.00,,---,0.00,VWS V13.01,2016-12-03 07:55:00,
2016-12-03 02:00:00,49.9,40.2,29.97,ENE,59,0.0,10.0,69,0.00,,---,0.00,VWS V13.01,2016-12-03 08:00:00,
2016-12-03 02:05:00,50.0,40.2,29.97,ENE,60,6.0,6.0,69,0.01,,---,0.01,VWS V13.01,2016-12-03 08:05:00,
2016-12-03 02:10:00,50.0,40.2,29.97,ENE,70,1.0,7.0,69,0.01,,---,0.01,VWS V13.01,2016-12-03 08:10:00,
2016-12-03 02:15:00,50.0,40.2,29.97,ENE,64,5.0,7.0,69,0.01,,---,0.01,VWS V13.01,2016-12-03 08:15:00,
2016-12-03 02:20:00,50.0,39.9,29.96,ENE,67,6.0,10.0,68,0.01,,---,0.01,VWS V13.01,2016-12-03 08:20:00,
2016-12-03 02:25:00,49.9,39.8,29.96,ENE,77,5.0,10.0,68,0.01,,---,0.01,VWS V13.01,2016-12-03 08:25:00,
2016-12-03 02:30:00,49.9,39.8,29.96,ENE,60,9.0,10.0,68,0.01,,---,0.01,VWS V13.01,2016-12-03 08:30:00,
2016-12-03 02:35:00,49.9,39.8,29.96,NE,56,4.0,11.0,68,0.01,,---,0.01,VWS V13.01,2016-12-03 08:35:00,
2016-12-03 02:40:00,49.9,39.8,29.95,ENE,58,3.0,11.0,68,0.01,,---,0.01,VWS V13.01,2016-12-03 08:40:00,
2016-12-03 02:45:00,49.9,39.8,29.95,ENE,67,3.0,11.0,68,0.01,,---,0.01,VWS V13.01,2016-12-03 08:45:00,
2016-12-03 02:50:00,49.8,39.7,29.95,ENE,58,4.0,11.0,68,0.01,,---,0.01,VWS V13.01,2016-12-03 08:50:00,
2016-12-03 02:55:00,49.7,39.6,29.95,NE,53,1.0,11.0,68,0.02,,---,0.02,VWS V13.01,2016-12-03 08:55:00,
2016-12-03 03:00:00,49.6,39.5,29.95,NE,40,0.0,11.0,68,0.02,,---,0.02,VWS V13.01,2016-12-03 09:00:00,
2016-12-03 03:05:00,49.6,39.5,29.96,NE,53,3.0,5.0,68,0.03,,---,0.03,VWS V13.01,2016-12-03 09:05:00,
2016-12-03 03:10:00,49.5,39.4,29.95,ENE,70,3.0,6.0,68,0.03,,---,0.03,VWS V13.01,2016-12-03 09:10:00,
2016-12-03 03:15:00,49.4,39.3,29.94,NE,56,5.0,6.0,68,0.03,,---,0.03,VWS V13.01,2016-12-03 09:15:00,
2016-12-03 03:20:00,49.3,39.2,29.95,ENE,60,2.0,6.0,68,0.04,,---,0.04,VWS V13.01,2016-12-03 09:20:00,
2016-12-03 03:25:00,49.2,39.1,29.95,North,355,0.0,6.0,68,0.05,,---,0.05,VWS V13.01,2016-12-03 09:25:00,
2016-12-03 03:30:00,49.1,39.0,29.94,NE,52,2.0,3.0,68,0.07,,---,0.07,VWS V13.01,2016-12-03 09:30:00,
2016-12-03 03:35:00,49.0,38.9,29.94,NE,44,0.0,4.0,68,0.07,,---,0.08,VWS V13.01,2016-12-03 09:35:00,
2016-12-03 03:40:00,49.0,38.9,29.94,NNW,341,3.0,6.0,68,0.07,,---,0.08,VWS V13.01,2016-12-03 09:40:00,
2016-12-03 03:45:00,48.8,38.7,29.94,ENE,60,0.0,6.0,68,0.07,,---,0.08,VWS V13.01,2016-12-03 09:45:00,
2016-12-03 03:50:00,48.8,38.3,29.94,NNE,23,0.0,6.0,67,0.08,,---,0.09,VWS V13.01,2016-12-03 09:50:00,
2016-12-03 03:55:00,48.7,38.2,29.93,North,5,1.0,6.0,67,0.08,,---,0.09,VWS V13.01,2016-12-03 09:55:00,
2016-12-03 04:00:00,48.6,38.2,29.93,NE,54,1.0,2.0,67,0.08,,---,0.09,VWS V13.01,2016-12-03 10:00:00,
2016-12-03 04:05:00,48.6,38.2,29.92,NE,48,0.0,9.0,67,0.07,,---,0.09,VWS V13.01,2016-12-03 10:05:00,
2016-12-03 04:10:00,48.4,38.0,29.92,NE,42,0.0,9.0,67,0.07,,---,0.09,VWS V13.01,2016-12-03 10:10:00,
2016-12-03 04:15:00,48.4,38.0,29.95,NNE,21,0.0,9.0,67,0.07,,---,0.09,VWS V13.01,2016-12-03 10:15:00,
2016-12-03 04:20:00,48.5,37.7,29.94,North,355,5.0,9.0,66,0.11,,---,0.14,VWS V13.01,2016-12-03 10:20:00,
2016-12-03 04:25:00,48.4,37.6,29.94,North,350,0.0,9.0,66,0.21,,---,0.23,VWS V13.01,2016-12-03 10:25:00,
2016-12-03 04:30:00,48.3,37.5,29.94,North,11,0.0,0.0,66,0.25,,---,0.27,VWS V13.01,2016-12-03 10:30:00,
2016-12-03 04:35:00,48.3,37.5,29.94,NNE,33,1.0,3.0,66,0.40,,---,0.48,VWS V13.01,2016-12-03 10:35:00,
2016-12-03 04:40:00,48.2,37.4,29.94,NE,46,0.0,5.0,66,0.46,,---,0.53,VWS V13.01,2016-12-03 10:40:00,
2016-12-03 04:45:00,48.1,37.3,29.94,NE,46,0.0,5.0,66,0.49,,---,0.56,VWS V13.01,2016-12-03 10:45:00,
2016-12-03 04:50:00,48.1,36.9,29.92,ENE,61,3.0,5.0,65,0.52,,---,0.59,VWS V13.01,2016-12-03 10:50:00,
2016-12-03 04:55:00,48.1,36.9,29.90,ENE,58,4.0,9.0,65,0.56,,---,0.64,VWS V13.01,2016-12-03 10:55:00,
2016-12-03 05:00:00,48.1,36.9,29.90,ENE,69,4.0,4.0,65,0.61,,---,0.68,VWS V13.01,2016-12-03 11:00:00,
2016-12-03 05:05:00,48.1,36.5,29.91,NE,47,8.0,10.0,64,0.59,,---,0.68,VWS V13.01,2016-12-03 11:05:00,
2016-12-03 05:15:00,48.0,36.4,29.90,ENE,65,3.0,11.0,64,0.60,,---,0.69,VWS V13.01,2016-12-03 11:15:00,
2016-12-03 05:20:00,48.0,36.0,29.88,ENE,69,7.0,11.0,63,0.62,,---,0.71,VWS V13.01,2016-12-03 11:20:00,
2016-12-03 05:25:00,48.0,36.0,29.90,ENE,65,1.0,13.0,63,0.64,,---,0.73,VWS V13.01,2016-12-03 11:25:00,
2016-12-03 05:30:00,48.1,36.1,29.93,ENE,71,4.0,4.0,63,0.66,,---,0.75,VWS V13.01,2016-12-03 11:30:00,
2016-12-03 05:35:00,48.1,35.7,29.92,ENE,70,1.0,4.0,62,0.55,,---,0.85,VWS V13.01,2016-12-03 11:35:00,
2016-12-03 05:40:00,48.1,35.7,29.91,ENE,63,2.0,5.0,62,0.71,,---,0.99,VWS V13.01,2016-12-03 11:40:00,
2016-12-03 05:45:00,48.1,35.7,29.92,ENE,59,4.0,7.0,62,0.77,,---,1.05,VWS V13.01,2016-12-03 11:45:00,
2016-12-03 05:50:00,48.2,35.8,29.91,NE,43,1.0,10.0,62,0.83,,---,1.11,VWS V13.01,2016-12-03 11:50:00,
2016-12-03 05:55:00,48.2,35.8,29.92,ENE,63,5.0,10.0,62,0.97,,---,1.25,VWS V13.01,2016-12-03 11:55:00,
2016-12-03 06:01:00,48.2,35.4,29.92,North,11,0.0,0.0,61,1.01,,---,1.29,VWS V13.01,2016-12-03 12:01:00,
2016-12-03 06:06:00,48.3,35.5,29.94,NNW,347,0.0,5.0,61,0.63,,---,1.31,VWS V13.01,2016-12-03 12:06:00,
2016-12-03 06:11:00,48.4,35.6,29.93,North,360,0.0,5.0,61,0.64,,---,1.33,VWS V13.01,2016-12-03 12:11:00,
2016-12-03 06:16:00,48.4,35.6,29.93,ENE,57,4.0,5.0,61,0.67,,---,1.35,VWS V13.01,2016-12-03 12:16:00,
2016-12-03 06:21:00,48.5,35.7,29.94,NNE,32,0.0,5.0,61,0.68,,---,1.36,VWS V13.01,2016-12-03 12:21:00,
2016-12-03 06:26:00,48.6,35.8,29.95,North,355,0.0,5.0,61,0.69,,---,1.37,VWS V13.01,2016-12-03 12:26:00,
2016-12-03 06:31:00,48.7,35.5,29.95,NNW,343,2.0,3.0,60,0.69,,---,1.37,VWS V13.01,2016-12-03 12:31:00,
2016-12-03 06:36:00,48.8,35.5,29.94,NNW,327,1.0,3.0,60,0.62,,---,1.37,VWS V13.01,2016-12-03 12:36:00,
2016-12-03 06:41:00,49.0,35.7,29.94,NNW,348,0.0,4.0,60,0.62,,---,1.37,VWS V13.01,2016-12-03 12:41:00,
2016-12-03 06:46:00,48.9,35.6,29.94,NNE,16,0.0,6.0,60,0.62,,---,1.37,VWS V13.01,2016-12-03 12:46:00,
2016-12-03 06:51:00,48.8,35.5,29.93,NE,42,0.0,6.0,60,0.62,,---,1.37,VWS V13.01,2016-12-03 12:51:00,
2016-12-03 06:56:00,48.8,35.5,29.92,NNE,33,0.0,6.0,60,0.62,,---,1.38,VWS V13.01,2016-12-03 12:56:00,
2016-12-03 07:01:00,48.8,35.5,29.93,NNE,18,0.0,4.0,60,0.63,,---,1.38,VWS V13.01,2016-12-03 13:01:00,
2016-12-03 07:06:00,48.9,35.6,29.93,NNE,25,0.0,6.0,60,0.10,,---,1.38,VWS V13.01,2016-12-03 13:06:00,
2016-12-03 07:11:00,49.0,35.7,29.93,NE,56,2.0,6.0,60,0.10,,---,1.38,VWS V13.01,2016-12-03 13:11:00,
2016-12-03 07:16:00,49.0,35.7,29.93,North,355,1.0,6.0,60,0.10,,---,1.38,VWS V13.01,2016-12-03 13:16:00,
2016-12-03 07:21:00,49.1,35.8,29.93,North,355,0.0,6.0,60,0.10,,---,1.38,VWS V13.01,2016-12-03 13:21:00,
2016-12-03 07:26:00,49.1,35.4,29.93,North,11,0.0,6.0,59,0.10,,---,1.39,VWS V13.01,2016-12-03 13:26:00,
2016-12-03 07:31:00,49.2,35.5,29.94,North,355,0.0,0.0,59,0.11,,---,1.39,VWS V13.01,2016-12-03 13:31:00,
2016-12-03 07:36:00,49.3,35.6,29.95,NNW,344,2.0,5.0,59,0.02,,---,1.39,VWS V13.01,2016-12-03 13:36:00,
2016-12-03 07:41:00,49.4,35.7,29.95,North,5,2.0,5.0,59,0.02,,---,1.39,VWS V13.01,2016-12-03 13:41:00,
2016-12-03 07:46:00,49.5,35.8,29.96,NNW,342,0.0,5.0,59,0.02,,---,1.39,VWS V13.01,2016-12-03 13:46:00,
2016-12-03 07:51:00,49.6,35.9,29.97,North,349,3.0,5.0,59,0.03,,---,1.40,VWS V13.01,2016-12-03 13:51:00,
2016-12-03 07:56:00,49.7,36.0,29.97,NNW,330,2.0,5.0,59,0.05,,---,1.42,VWS V13.01,2016-12-03 13:56:00,
2016-12-03 08:01:00,49.7,36.0,29.99,NW,324,0.0,0.0,59,0.06,,---,1.43,VWS V13.01,2016-12-03 14:01:00,
2016-12-03 08:06:00,49.7,36.0,29.99,WNW,284,0.0,6.0,59,0.05,,---,1.43,VWS V13.01,2016-12-03 14:06:00,
2016-12-03 08:11:00,49.8,36.1,29.99,NNW,334,0.0,6.0,59,0.05,,---,1.43,VWS V13.01,2016-12-03 14:11:00,
2016-12-03 08:16:00,49.7,36.0,29.98,NNW,348,0.0,6.0,59,0.06,,---,1.44,VWS V13.01,2016-12-03 14:16:00,
2016-12-03 08:21:00,49.7,36.0,29.98,North,355,3.0,6.0,59,0.06,,---,1.44,VWS V13.01,2016-12-03 14:21:00,
2016-12-03 08:26:00,49.7,36.0,29.98,North,10,1.0,6.0,59,0.06,,---,1.44,VWS V13.01,2016-12-03 14:26:00,
2016-12-03 08:31:00,49.7,36.0,29.97,NNE,26,0.0,2.0,59,0.06,,---,1.44,VWS V13.01,2016-12-03 14:31:00,
2016-12-03 08:36:00,49.7,36.0,29.98,North,360,6.0,6.0,59,0.06,,---,1.45,VWS V13.01,2016-12-03 14:36:00,
2016-12-03 08:41:00,49.7,36.0,29.98,ENE,67,0.0,6.0,59,0.10,,---,1.50,VWS V13.01,2016-12-03 14:41:00,
2016-12-03 08:46:00,49.8,36.1,29.98,NNE,33,0.0,6.0,59,0.12,,---,1.52,VWS V13.01,2016-12-03 14:46:00,
2016-12-03 08:51:00,49.8,36.1,29.97,NE,54,0.0,6.0,59,0.14,,---,1.53,VWS V13.01,2016-12-03 14:51:00,
2016-12-03 08:56:00,49.9,36.2,29.96,North,355,0.0,6.0,59,0.14,,---,1.53,VWS V13.01,2016-12-03 14:56:00,